sat.trackr.live / text

‹ back to catalog

ONEWEB-0372

NORAD 49298 · 2021-090V

PAYLOAD ACTIVE UNKNOWN

§ Identity

Operator
Country
UK
Launch date
2021-10-14
Launch site
VOSTO
Launch vehicle
Mass (kg)
RCS (m²)

Purposes: comms

External: N2YO · Heavens-Above · Gunter

§ Orbital elements

Epoch: 2026-05-24T21:42:57.170304Z

Period
109.03 min
Inclination
87.9177°
Eccentricity
0.0001840
Mean motion
13.20769866 rev/d
Perigee alt
1,180.4 km
Apogee alt
1,183.2 km
Semi-major
7,559.9 km
B*
-1.2444e-4
RAAN
279.0836°
Arg perigee
98.6557°
Mean anomaly
261.4785°
Rev number
22,676

§ Raw data

ONEWEB-03721 49298U 21090V   26144.90482836 -.00000038  00000+0 -12444-3 0  99912 49298  87.9177 279.0836 0001840  98.6557 261.4785 13.20769866226765

JSON: /api/v1/satellites/49298 · /tle

For live sub-satellite position, see the globe view (requires WebGL).

§ Visibility from observer

Set your observer location to see the next 7 days of passes ≥ 10°. The values pass through the URL so the page stays shareable.

No JS? Fill the form by hand. The geolocation button needs JavaScript.